VE9LJW Weather Reports


time (UTC)temp
F
wind
direction
speed
knots
gust
knots
rain 1hr
in
rain 24hr
in
rain mn
in
humidity
%
barometer
mb
20260505100350 51 180 0.9 3.5 0.00 0.00 0.00 92 1005.7
20260505095846 51 140 2.6 2.6 0.00 0.00 0.00 93 1005.6
20260505095344 50 166 2.6 3.5 0.00 0.00 0.00 94 1005.4
20260505094839 50 99 1.7 1.7 0.00 0.00 0.00 95 1005.5
20260505094336 50 243 0.0 4.3 0.00 0.00 0.00 95 1005.5
20260505093832 50 213 1.7 1.7 0.00 0.00 0.00 95 1005.4
20260505093330 50 165 0.0 1.7 0.00 0.00 0.00 95 1005.4
20260505092827 50 171 1.7 2.6 0.00 0.00 0.00 95 1005.6
20260505092325 50 154 0.9 1.7 0.00 0.00 0.00 95 1005.5
20260505091822 50 209 2.6 3.5 0.00 0.00 0.00 95 1005.6
20260505091320 50 234 0.0 3.5 0.00 0.00 0.00 95 1005.6
20260505090818 49 106 1.7 1.7 0.00 0.00 0.00 97 1005.5
20260505090316 50 139 1.7 3.5 0.00 0.00 0.00 97 1005.4
20260505085813 50 140 0.9 1.7 0.00 0.00 0.00 97 1005.7
20260505085310 50 26 0.9 0.9 0.00 0.00 0.00 97 1005.6
20260505084808 50 217 4.3 4.3 0.00 0.00 0.00 98 1005.4
20260505084307 50 210 1.7 3.5 0.00 0.00 0.00 99 1005.4
20260505083803 49 121 2.6 2.6 0.00 0.00 0.00 99 1005.5
20260505083300 49 114 1.7 2.6 0.00 0.00 0.00 98 1005.6
20260505082756 49 128 1.7 1.7 0.00 0.00 0.00 98 1005.7
20260505082253 50 157 0.9 1.7 0.00 0.00 0.00 98 1005.8
20260505081749 50 166 0.9 2.6 0.00 0.00 0.00 98 1006.0
20260505081246 50 139 1.7 2.6 0.00 0.00 0.00 98 1005.8
20260505080743 49 126 0.9 0.9 0.00 0.00 0.00 98 1005.8
20260505080239 50 132 1.7 2.6 0.00 0.00 0.00 98 1005.8
20260505075735 49 183 1.7 2.6 0.00 0.00 0.00 98 1006.0
20260505075232 50 171 1.7 2.6 0.00 0.00 0.00 98 1005.9
20260505074729 49 140 2.6 2.6 0.00 0.00 0.00 98 1005.8
20260505074226 49 187 0.9 1.7 0.00 0.00 0.00 98 1006.0
20260505073724 49 157 0.9 0.9 0.00 0.00 0.00 97 1005.8
20260505073221 50 151 1.7 1.7 0.00 0.00 0.00 97 1005.6
20260505072717 50 144 1.7 1.7 0.00 0.00 0.00 97 1006.0
20260505072214 50 126 0.0 1.7 0.00 0.00 0.00 97 1005.7
20260505071709 50 169 0.9 1.7 0.00 0.00 0.00 96 1005.7
20260505071207 50 195 0.0 1.7 0.00 0.00 0.00 95 1005.8
20260505070705 51 209 1.7 1.7 0.00 0.00 0.00 95 1005.6
20260505070200 51 225 1.7 2.6 0.00 0.00 0.00 94 1005.6
20260505065656 52 199 1.7 2.6 0.00 0.00 0.00 93 1005.7
20260505065153 52 200 0.0 0.9 0.00 0.00 0.00 93 1005.6
20260505064650 53 220 0.9 1.7 0.00 0.00 0.00 92 1005.6
20260505064148 53 209 1.7 1.7 0.00 0.00 0.00 91 1005.6
20260505063645 53 199 1.7 1.7 0.00 0.00 0.00 91 1005.8
20260505063142 54 209 2.6 2.6 0.00 0.00 0.00 90 1005.6
20260505062638 54 205 2.6 2.6 0.00 0.00 0.00 90 1005.6
20260505062135 54 195 1.7 2.6 0.00 0.00 0.00 90 1005.5
20260505061632 54 194 2.6 2.6 0.00 0.00 0.00 90 1005.5
20260505061131 54 225 1.7 1.7 0.00 0.00 0.00 90 1005.6
20260505060628 54 195 1.7 2.6 0.00 0.00 0.00 90 1005.4
20260505060125 54 199 1.7 2.6 0.00 0.00 0.00 90 1005.6
20260505055620 54 198 2.6 4.3 0.00 0.00 0.00 90 1005.5
20260505055116 54 218 3.5 6.1 0.00 0.00 0.00 90 1005.7
20260505054614 54 180 2.6 3.5 0.00 0.00 0.00 90 1005.6
20260505054112 55 114 5.2 6.1 0.00 0.00 0.00 89 1005.6
20260505053609 55 197 1.7 2.6 0.00 0.00 0.00 89 1005.9
20260505053105 54 191 0.0 3.5 0.00 0.00 0.00 90 1005.6
20260505052602 54 208 5.2 6.1 0.00 0.00 0.00 90 1005.9
20260505052100 54 175 0.9 2.6 0.00 0.00 0.00 90 1005.7
20260505051557 54 203 2.6 3.5 0.00 0.00 0.00 90 1005.9
20260505051055 54 225 1.7 3.5 0.00 0.00 0.00 90 1005.7
20260505050552 54 220 0.9 2.6 0.00 0.00 0.00 90 1005.7
20260505041520 54 241 1.7 3.5 0.00 0.00 0.00 88 1005.3
20260505041018 55 228 0.0 3.5 0.00 0.00 0.00 88 1005.2
20260505040515 55 142 0.9 7.0 0.00 0.00 0.00 88 1005.4
20260505040012 54 216 2.6 4.3 0.00 0.00 0.00 88 1005.3
20260505035508 54 228 1.7 3.5 0.00 0.00 0.00 89 1005.2
20260505035005 54 228 0.0 2.6 0.00 0.00 0.00 89 1005.2
20260505034501 54 90 1.7 1.7 0.00 0.00 0.00 89 1005.1
20260505033958 54 203 0.9 1.7 0.00 0.00 0.00 89 1005.2
20260505033455 54 131 2.6 2.6 0.00 0.00 0.00 89 1005.2
20260505032954 54 187 0.9 2.6 0.00 0.00 0.00 89 1005.3
20260505032451 53 208 1.7 2.6 0.00 0.00 0.00 89 1005.2
20260505031946 53 180 0.9 1.7 0.00 0.00 0.00 90 1005.2
20260505031444 53 194 0.0 1.7 0.00 0.00 0.00 89 1005.2
20260505030941 54 184 1.7 1.7 0.00 0.00 0.00 89 1005.1
20260505030437 54 199 1.7 1.7 0.00 0.00 0.00 89 1005.0
20260505025932 54 217 1.7 2.6 0.00 0.00 0.00 89 1005.1
20260505025429 54 157 0.0 1.7 0.00 0.00 0.00 89 1004.9
20260505024928 54 164 1.7 2.6 0.00 0.00 0.00 89 1005.1
20260505024425 54 75 0.0 1.7 0.00 0.00 0.00 89 1005.1
20260505023922 54 212 0.0 2.6 0.00 0.00 0.00 89 1005.2
20260505023419 54 221 1.7 3.5 0.00 0.00 0.00 88 1005.3
20260505022916 54 196 1.7 4.3 0.00 0.00 0.00 88 1005.2
20260505022414 54 187 0.9 1.7 0.00 0.00 0.00 88 1005.1
20260505021911 53 196 1.7 2.6 0.00 0.00 0.00 88 1004.9
20260505021407 54 199 1.7 1.7 0.00 0.00 0.00 88 1004.8
20260505020903 54 198 0.9 2.6 0.00 0.00 0.00 88 1004.9
20260505020359 54 210 1.7 1.7 0.00 0.00 0.00 88 1004.7
20260505015856 53 206 0.9 1.7 0.00 0.00 0.00 89 1004.8
20260505015353 53 140 0.9 1.7 0.00 0.00 0.00 88 1004.7
20260505014850 53 204 1.7 1.7 0.00 0.00 0.00 88 1004.6
20260505014347 53 203 0.9 2.6 0.00 0.00 0.00 88 1004.8
20260505013843 53 111 0.0 0.9 0.00 0.00 0.00 87 1004.5
20260505013341 54 180 0.9 2.6 0.00 0.00 0.00 87 1004.8
20260505012839 54 204 1.7 2.6 0.00 0.00 0.00 87 1004.7
20260505012337 54 216 2.6 2.6 0.00 0.00 0.00 87 1004.5
20260505011833 54 180 0.9 1.7 0.00 0.00 0.00 87 1004.6
20260505011330 54 194 1.7 2.6 0.00 0.00 0.00 86 1004.4
20260505010825 54 220 0.0 1.7 0.00 0.00 0.00 87 1004.5
20260505010322 54 191 0.9 1.7 0.00 0.00 0.00 86 1004.5
20260505005818 55 187 0.9 2.6 0.00 0.00 0.00 86 1004.4
20260505005315 55 231 1.7 3.5 0.00 0.00 0.00 86 1004.1
20260505004813 55 209 2.6 3.5 0.00 0.00 0.00 85 1004.1
20260505004308 55 203 0.0 3.5 0.00 0.00 0.00 85 1004.1
20260505003806 54 204 1.7 2.6 0.00 0.00 0.00 85 1003.7
20260505003303 55 204 1.7 2.6 0.00 0.00 0.00 85 1003.9
20260505002759 54 189 1.7 2.6 0.00 0.00 0.00 85 1003.8
20260505002257 55 225 0.0 2.6 0.00 0.00 0.00 84 1003.7
20260505001755 55 216 1.7 2.6 0.00 0.00 0.00 84 1003.4
20260505001252 55 216 2.6 4.3 0.00 0.00 0.00 83 1003.4
20260505000749 55 196 2.6 4.3 0.00 0.00 0.00 83 1003.4
20260505000246 55 236 3.5 4.3 0.00 0.00 0.00 84 1003.4
20260504235743 55 186 0.9 2.6 0.00 0.00 0.00 84 1003.0
20260504235239 55 234 2.6 2.6 0.00 0.00 0.00 84 1003.2
20260504234736 56 259 1.7 5.2 0.00 0.00 0.00 83 1003.2
20260504234234 56 208 2.6 4.3 0.00 0.00 0.00 83 1003.1
20260504233730 56 201 1.7 4.3 0.00 0.00 0.00 84 1002.9
20260504233226 56 236 1.7 3.5 0.00 0.00 0.00 83 1002.9
20260504232723 56 190 2.6 5.2 0.00 0.00 0.00 82 1002.5
20260504232220 56 249 2.6 7.0 0.00 0.00 0.00 82 1002.8
20260504231716 56 301 1.7 3.5 0.00 0.00 0.00 82 1002.4
20260504231213 57 267 2.6 6.1 0.00 0.00 0.00 81 1002.5
20260504230709 57 213 3.5 7.8 0.00 0.00 0.00 81 1002.5
20260504230208 57 210 3.5 5.2 0.00 0.00 0.00 80 1002.5
20260504225706 57 263 3.5 7.0 0.00 0.00 0.00 79 1002.1
20260504225202 57 270 1.7 5.2 0.00 0.00 0.00 80 1002.1
20260504224700 58 236 3.5 7.0 0.00 0.00 0.00 78 1002.0
20260504224156 58 210 0.0 6.1 0.00 0.00 0.00 78 1002.0
20260504223653 58 241 1.7 3.5 0.00 0.00 0.00 78 1001.7
20260504223148 59 265 3.5 5.2 0.00 0.00 0.00 77 1001.8
20260504222646 59 288 3.5 6.1 0.00 0.00 0.00 76 1001.7
20260504222142 59 270 0.9 6.1 0.00 0.00 0.00 76 1001.7
20260504221640 59 215 4.3 5.2 0.00 0.00 0.00 76 1001.5
20260504221137 59 231 4.3 7.8 0.00 0.00 0.00 75 1001.8
20260504220633 59 223 4.3 7.0 0.00 0.00 0.00 75 1001.5
20260504220131 59 251 1.7 9.6 0.00 0.00 0.00 75 1001.5
20260504215626 59 214 1.7 5.2 0.00 0.00 0.00 75 1001.3
20260504215119 59 256 4.3 6.1 0.00 0.00 0.00 75 1001.5
20260504214615 59 283 1.7 5.2 0.00 0.00 0.00 74 1001.3
20260504214111 59 255 0.9 6.1 0.00 0.00 0.00 75 1001.3
20260504213608 59 268 3.5 7.0 0.00 0.00 0.00 75 1001.5
20260504213105 59 264 4.3 7.0 0.00 0.00 0.00 75 1001.4
20260504212600 59 223 3.5 7.0 0.00 0.00 0.00 74 1001.3
20260504212058 60 186 0.9 7.0 0.00 0.00 0.00 73 1001.2
20260504211555 59 207 0.0 5.2 0.00 0.00 0.00 73 1001.2
20260504211051 59 262 4.3 6.1 0.00 0.00 0.00 74 1001.3
20260504210549 59 241 3.5 7.8 0.00 0.00 0.00 74 1001.0
20260504210045 58 266 2.6 10.4 0.00 0.00 0.00 74 1001.1
20260504205543 59 215 4.3 13.0 0.00 0.00 0.00 74 1001.2
20260504205041 59 225 5.2 6.1 0.00 0.00 0.00 74 1001.3
20260504204539 59 246 5.2 6.1 0.00 0.00 0.00 74 1001.2
20260504204038 59 210 5.2 7.0 0.00 0.00 0.00 73 1001.3
20260504203535 58 238 4.3 7.0 0.00 0.00 0.00 74 1001.0
20260504203032 57 239 6.1 7.8 0.00 0.00 0.00 75 1001.0
20260504202528 58 225 4.3 7.8 0.00 0.00 0.00 75 1001.2
20260504202025 58 257 5.2 8.7 0.00 0.00 0.00 76 1001.2
20260504201522 58 226 6.1 8.7 0.00 0.00 0.00 75 1001.2
20260504201020 58 229 6.1 8.7 0.00 0.00 0.00 75 1001.2
20260504200516 58 249 2.6 5.2 0.00 0.00 0.00 76 1001.3
20260504200013 58 220 2.6 3.5 0.00 0.00 0.00 75 1000.8
20260504195509 58 232 4.3 7.0 0.00 0.00 0.00 75 1001.1
20260504195006 58 214 3.5 7.0 0.00 0.00 0.00 76 1000.9
20260504194502 57 237 4.3 6.1 0.00 0.00 0.00 77 1001.0
20260504193957 58 270 2.6 3.5 0.00 0.00 0.00 77 1001.1
20260504193455 58 243 0.9 5.2 0.00 0.00 0.00 77 1000.8
20260504192954 57 257 1.7 7.0 0.00 0.00 0.00 76 1001.1
20260504192450 58 238 2.6 4.3 0.00 0.00 0.00 78 1001.2
20260504191949 57 222 6.1 7.0 0.00 0.00 0.00 77 1001.2
20260504191447 58 270 1.7 7.8 0.00 0.00 0.00 75 1001.4
20260504190942 58 231 7.8 7.8 0.00 0.00 0.00 75 1001.4
20260504190438 58 238 2.6 5.2 0.00 0.00 0.00 73 1001.3
20260504185935 58 248 4.3 7.8 0.00 0.00 0.00 72 1001.3
20260504185432 59 242 9.6 14.8 0.00 0.00 0.00 71 1001.2
20260504184928 59 239 4.3 12.2 0.00 0.00 0.00 67 1001.2
20260504184424 60 233 6.1 11.3 0.00 0.00 0.00 65 1001.0
20260504183920 60 222 6.1 10.4 0.00 0.00 0.00 62 1000.9
20260504183417 61 255 6.1 11.3 0.00 0.00 0.00 60 1000.9
20260504182915 61 227 2.6 13.9 0.00 0.00 0.00 57 1000.7
20260504182412 62 208 7.0 11.3 0.00 0.00 0.00 53 1000.4
20260504181909 62 270 1.7 7.8 0.00 0.00 0.00 50 1000.4
20260504181406 63 245 5.2 13.0 0.00 0.00 0.00 50 1000.3
20260504180905 64 242 5.2 6.1 0.00 0.00 0.00 48 1000.0
20260504180403 63 233 4.3 5.2 0.00 0.00 0.00 48 1000.2
20260504175901 64 227 2.6 10.4 0.00 0.00 0.00 49 999.9
20260504175357 65 238 5.2 8.7 0.00 0.00 0.00 46 1000.1
20260504174855 64 225 3.5 6.1 0.00 0.00 0.00 47 1000.0
20260504174353 66 267 2.6 7.0 0.00 0.00 0.00 46 1000.0
20260504173850 64 236 4.3 4.3 0.00 0.00 0.00 44 1000.1
20260504173346 62 254 1.7 6.1 0.00 0.00 0.00 46 999.9
20260504172843 63 253 1.7 4.3 0.00 0.00 0.00 46 999.9
20260504172340 64 259 1.7 3.5 0.00 0.00 0.00 43 1000.0
20260504171835 64 274 3.5 6.1 0.00 0.00 0.00 44 1000.1
20260504171333 64 301 7.8 7.8 0.00 0.00 0.00 42 1000.3
20260504170830 63 230 4.3 8.7 0.00 0.00 0.00 44 1000.4
20260504170327 65 254 0.0 8.7 0.00 0.00 0.00 43 1000.4
20260504160245 61 286 0.9 5.2 0.00 0.00 0.00 47 1001.0
20260504150711 58 270 2.6 13.0 0.00 0.00 0.00 51 1001.6
20260504150207 58 270 7.0 10.4 0.00 0.00 0.00 49 1001.7
20260504141137 56 234 2.6 9.6 0.00 0.00 0.00 52 1002.0
20260504140633 55 234 4.3 14.8 0.00 0.00 0.00 59 1002.0
20260504140129 55 270 1.7 6.1 0.00 0.00 0.00 56 1001.7
20260504130557 51 270 0.0 5.2 0.00 0.00 0.00 72 1001.9
20260504110445 45 253 2.6 5.2 0.00 0.00 0.00 86 1001.2